FDX1050 KLAS-KMIA

Flight info

Callsign FDX1050
Flight time 3h 47m
Altitude 35000
Route NIITZ4 SSKEE DCT INW DCT CNX DCT ABI J50 ACT/N0474F370 J50 LFK DCT HRV Q105 BLVNS Y290 GAWKS FROGZ5
Aircraft MD11/M-VGDW/C

Departure

Time 2026-05-05 18:10
Airport Harry Reid International Airport (KLAS)

Arrival

Time 2026-05-05 21:57
Airport Miami International Airport (KMIA)
Time Latitude Longitude Altitude Speed Heading
2026-05-05 17:34 36.08069 -115.12547 2068 ft 0 kts 90°
2026-05-05 17:56 36.08069 -115.12564 2068 ft 4 kts 90°
2026-05-05 17:56 36.08070 -115.12593 2069 ft 3 kts 91°
2026-05-05 17:57 36.08073 -115.12621 2070 ft 4 kts 127°
2026-05-05 17:57 36.08086 -115.12635 2071 ft 4 kts 176°
2026-05-05 17:57 36.08111 -115.12635 2071 ft 2 kts 180°
2026-05-05 17:57 36.08112 -115.12635 2071 ft 0 kts 180°
2026-05-05 18:04 36.08081 -115.12635 2071 ft 5 kts 180°
2026-05-05 18:05 36.08053 -115.12635 2071 ft 3 kts 180°
2026-05-05 18:05 36.08029 -115.12635 2071 ft 6 kts 180°
2026-05-05 18:05 36.07962 -115.12635 2071 ft 13 kts 180°
2026-05-05 18:05 36.07857 -115.12622 2070 ft 14 kts 158°
2026-05-05 18:06 36.07825 -115.12566 2068 ft 7 kts 107°
2026-05-05 18:06 36.07820 -115.12540 2067 ft 3 kts 95°
2026-05-05 18:06 36.07823 -115.12456 2065 ft 11 kts 82°
2026-05-05 18:06 36.07832 -115.12332 2063 ft 17 kts 90°
2026-05-05 18:07 36.07802 -115.12222 2059 ft 11 kts 123°
2026-05-05 18:07 36.07760 -115.12158 2057 ft 8 kts 132°
2026-05-05 18:07 36.07758 -115.12154 2057 ft 0 kts 132°
2026-05-05 18:08 36.07757 -115.12154 2057 ft 0 kts 132°
2026-05-05 18:08 36.07728 -115.12135 2058 ft 10 kts 158°
2026-05-05 18:09 36.07660 -115.12142 2059 ft 3 kts 220°
2026-05-05 18:09 36.07647 -115.12178 2056 ft 4 kts 258°
2026-05-05 18:09 36.07645 -115.12206 2057 ft 0 kts 266°
2026-05-05 18:09 36.07644 -115.12235 2058 ft 8 kts 268°
2026-05-05 18:10 36.07642 -115.12590 2070 ft 83 kts 270°
2026-05-05 18:10 36.07640 -115.13645 2100 ft 160 kts 269°
2026-05-05 18:10 36.07634 -115.15221 2318 ft 197 kts 268°
2026-05-05 18:10 36.07623 -115.16989 3054 ft 209 kts 268°
2026-05-05 18:11 36.07626 -115.18659 4490 ft 181 kts 268°
2026-05-05 18:11 36.07595 -115.20257 5208 ft 192 kts 261°
2026-05-05 18:11 36.07398 -115.21970 5653 ft 218 kts 259°
2026-05-05 18:11 36.07036 -115.23922 5959 ft 244 kts 248°
2026-05-05 18:12 36.06086 -115.25772 6336 ft 264 kts 220°
2026-05-05 18:12 36.04520 -115.26982 6921 ft 272 kts 205°
2026-05-05 18:12 36.02757 -115.27879 7286 ft 274 kts 200°
2026-05-05 18:12 36.00942 -115.28508 7651 ft 262 kts 187°
2026-05-05 18:13 35.99176 -115.28395 8329 ft 251 kts 165°
2026-05-05 18:13 35.97565 -115.27501 9106 ft 257 kts 144°
2026-05-05 18:13 35.96161 -115.26105 9876 ft 260 kts 138°
2026-05-05 18:13 35.94806 -115.24604 10439 ft 274 kts 137°
2026-05-05 18:14 35.93326 -115.22940 10576 ft 303 kts 137°
2026-05-05 18:14 35.91736 -115.21046 10709 ft 329 kts 130°
2026-05-05 18:14 35.90326 -115.18678 10902 ft 353 kts 122°
2026-05-05 18:14 35.89048 -115.16096 11606 ft 359 kts 121°
2026-05-05 18:15 35.87792 -115.13405 12402 ft 363 kts 118°
2026-05-05 18:15 35.86849 -115.10495 13171 ft 367 kts 103°
2026-05-05 18:15 35.86596 -115.07384 13891 ft 372 kts 91°
2026-05-05 18:15 35.86714 -115.04206 14537 ft 376 kts 86°
2026-05-05 18:16 35.86952 -115.00969 15155 ft 380 kts 85°
2026-05-05 18:16 35.87205 -114.97709 15785 ft 384 kts 85°
2026-05-05 18:16 35.87443 -114.94394 16395 ft 389 kts 85°
2026-05-05 18:16 35.87662 -114.91051 17011 ft 392 kts 86°
2026-05-05 18:17 35.87861 -114.87737 17602 ft 396 kts 86°
2026-05-05 18:17 35.88055 -114.84323 18178 ft 400 kts 86°
2026-05-05 18:17 35.88242 -114.80920 18690 ft 403 kts 86°
2026-05-05 18:17 35.88428 -114.77455 19202 ft 406 kts 86°
2026-05-05 18:18 35.88614 -114.73953 19697 ft 409 kts 86°
2026-05-05 18:18 35.88798 -114.70466 20182 ft 412 kts 86°
2026-05-05 18:18 35.88984 -114.66916 20683 ft 414 kts 86°
2026-05-05 18:18 35.89170 -114.63355 21145 ft 417 kts 86°
2026-05-05 18:19 35.89357 -114.59750 21647 ft 420 kts 86°
2026-05-05 18:19 35.89542 -114.56172 22159 ft 423 kts 86°
2026-05-05 18:19 35.89697 -114.52534 22655 ft 426 kts 88°
2026-05-05 18:19 35.89744 -114.48871 23167 ft 429 kts 90°
2026-05-05 18:20 35.89732 -114.45168 23647 ft 432 kts 90°
2026-05-05 18:20 35.89700 -114.41442 24076 ft 435 kts 90°
2026-05-05 18:20 35.89666 -114.37740 24511 ft 438 kts 91°
2026-05-05 18:20 35.89635 -114.33950 24892 ft 443 kts 91°
2026-05-05 18:21 35.89607 -114.30110 25343 ft 447 kts 91°
2026-05-05 18:21 35.89581 -114.26297 25774 ft 450 kts 91°
2026-05-05 18:21 35.89557 -114.22407 26242 ft 453 kts 91°
2026-05-05 18:21 35.89532 -114.18498 26663 ft 457 kts 91°
2026-05-05 18:22 35.89506 -114.14605 27099 ft 460 kts 91°
2026-05-05 18:22 35.89478 -114.10635 27548 ft 463 kts 91°
2026-05-05 18:22 35.89449 -114.06635 27930 ft 467 kts 91°
2026-05-05 18:22 35.89419 -114.02614 28350 ft 470 kts 91°
2026-05-05 18:23 35.89387 -113.98608 28748 ft 473 kts 91°
2026-05-05 18:23 35.89352 -113.94508 29188 ft 476 kts 91°
2026-05-05 18:23 35.89317 -113.90447 29580 ft 480 kts 91°
2026-05-05 18:23 35.89280 -113.86311 29938 ft 483 kts 91°
2026-05-05 18:24 35.89241 -113.82128 30229 ft 486 kts 91°
2026-05-05 18:24 35.89200 -113.77940 30535 ft 488 kts 92°
2026-05-05 18:24 35.89159 -113.73779 30836 ft 490 kts 92°
2026-05-05 18:24 35.89114 -113.69537 31071 ft 494 kts 92°
2026-05-05 18:25 35.89069 -113.65331 31377 ft 496 kts 92°
2026-05-05 18:25 35.89037 -113.62458 31591 ft 497 kts 92°
2026-05-05 18:25 35.88972 -113.56781 32011 ft 498 kts 93°
2026-05-05 18:25 35.88755 -113.52510 32294 ft 498 kts 99°
2026-05-05 18:26 35.88279 -113.48266 32597 ft 498 kts 102°
2026-05-05 18:26 35.87681 -113.44112 32881 ft 499 kts 103°
2026-05-05 18:26 35.87027 -113.39883 33111 ft 501 kts 104°
2026-05-05 18:26 35.86367 -113.35628 33344 ft 503 kts 104°
2026-05-05 18:27 35.85730 -113.31428 33666 ft 504 kts 104°
2026-05-05 18:27 35.85099 -113.27158 33940 ft 506 kts 104°
2026-05-05 18:27 35.84476 -113.22876 34072 ft 509 kts 104°
2026-05-05 18:27 35.83854 -113.18569 34308 ft 510 kts 104°
2026-05-05 18:28 35.82619 -113.09998 34735 ft 511 kts 104°
2026-05-05 18:28 35.81361 -113.01326 34833 ft 513 kts 105°
2026-05-05 18:29 35.80101 -112.92706 34842 ft 513 kts 105°
2026-05-05 18:29 35.78822 -112.84005 34843 ft 516 kts 105°
2026-05-05 18:30 35.77540 -112.75331 34833 ft 518 kts 105°
2026-05-05 18:30 35.76236 -112.66585 34839 ft 519 kts 106°
2026-05-05 18:31 35.74919 -112.57893 34842 ft 520 kts 106°
2026-05-05 18:31 35.73591 -112.49072 34847 ft 523 kts 106°
2026-05-05 18:32 35.72277 -112.40312 34887 ft 524 kts 107°
2026-05-05 18:32 35.70943 -112.31463 34928 ft 525 kts 107°
2026-05-05 18:33 35.69609 -112.22661 34953 ft 525 kts 107°
2026-05-05 18:33 35.68261 -112.13813 34965 ft 524 kts 107°
2026-05-05 18:34 35.66910 -112.05001 34953 ft 527 kts 108°
2026-05-05 18:34 35.65550 -111.96170 34933 ft 527 kts 108°
2026-05-05 18:35 35.64162 -111.87265 34891 ft 529 kts 110°
2026-05-05 18:35 35.61776 -111.78939 34815 ft 508 kts 128°
2026-05-05 18:36 35.57888 -111.71856 34828 ft 496 kts 137°
2026-05-05 18:36 35.53783 -111.65066 34828 ft 498 kts 136°
2026-05-05 18:37 35.49792 -111.58031 34838 ft 501 kts 134°
2026-05-05 18:37 35.45921 -111.50954 34824 ft 503 kts 135°
2026-05-05 18:38 35.42038 -111.43825 34839 ft 503 kts 135°
2026-05-05 18:38 35.38132 -111.36684 34850 ft 503 kts 135°
2026-05-05 18:39 35.34892 -111.30781 34852 ft 502 kts 135°
2026-05-05 18:39 35.30342 -111.22516 34827 ft 502 kts 136°
2026-05-05 18:40 35.26423 -111.15418 34858 ft 505 kts 136°
2026-05-05 18:40 35.23139 -111.09472 34859 ft 505 kts 136°
2026-05-05 18:41 35.19186 -111.02329 34867 ft 505 kts 136°
2026-05-05 18:41 35.15255 -110.95255 34935 ft 505 kts 137°
2026-05-05 18:42 35.11307 -110.88207 34955 ft 506 kts 137°
2026-05-05 18:42 35.07338 -110.81042 34995 ft 511 kts 134°
2026-05-05 18:43 35.05638 -110.77154 34994 ft 529 kts 126°
2026-05-05 18:43 35.04396 -110.72897 34999 ft 546 kts 116°
2026-05-05 18:43 35.03639 -110.68283 34998 ft 561 kts 107°
2026-05-05 18:43 35.03287 -110.63487 35001 ft 568 kts 103°
2026-05-05 18:44 35.03057 -110.58710 34879 ft 569 kts 103°
2026-05-05 18:44 35.02775 -110.53876 34877 ft 566 kts 104°
2026-05-05 18:44 35.01920 -110.44384 34862 ft 562 kts 107°
2026-05-05 18:45 35.00831 -110.34974 34875 ft 562 kts 108°
2026-05-05 18:45 34.99698 -110.25550 34859 ft 564 kts 108°
2026-05-05 18:46 34.98577 -110.16095 34866 ft 565 kts 108°
2026-05-05 18:46 34.97458 -110.06580 34863 ft 566 kts 108°
2026-05-05 18:47 34.96339 -109.97126 34864 ft 566 kts 108°
2026-05-05 18:47 34.95210 -109.87662 34870 ft 566 kts 108°
2026-05-05 18:48 34.94066 -109.78142 34846 ft 566 kts 108°
2026-05-05 18:48 34.92893 -109.68642 34870 ft 566 kts 108°
2026-05-05 18:49 34.91719 -109.59203 34872 ft 566 kts 108°
2026-05-05 18:49 34.90545 -109.49686 34874 ft 566 kts 108°
2026-05-05 18:50 34.89379 -109.40241 34869 ft 568 kts 108°
2026-05-05 18:50 34.88195 -109.30710 34877 ft 568 kts 108°
2026-05-05 18:51 34.87011 -109.21235 34871 ft 568 kts 108°
2026-05-05 18:51 34.85811 -109.11710 34853 ft 568 kts 108°
2026-05-05 18:52 34.84610 -109.02240 34881 ft 568 kts 108°
2026-05-05 18:52 34.83394 -108.92712 34884 ft 568 kts 108°
2026-05-05 18:53 34.82172 -108.83188 34883 ft 568 kts 108°
2026-05-05 18:53 34.80943 -108.73719 34884 ft 568 kts 109°
2026-05-05 18:54 34.79671 -108.64182 34885 ft 569 kts 109°
2026-05-05 18:54 34.78419 -108.54728 34867 ft 569 kts 108°
2026-05-05 18:55 34.77169 -108.45242 34876 ft 569 kts 108°
2026-05-05 18:55 34.75906 -108.35698 34870 ft 570 kts 108°
2026-05-05 18:56 34.74641 -108.26209 34867 ft 570 kts 108°
2026-05-05 18:56 34.73360 -108.16654 34879 ft 570 kts 108°
2026-05-05 18:57 34.72080 -108.07169 34860 ft 570 kts 109°
2026-05-05 18:57 34.70792 -107.97689 34857 ft 570 kts 109°
2026-05-05 18:58 34.69490 -107.88157 34852 ft 570 kts 109°
2026-05-05 18:58 34.68188 -107.78686 34846 ft 570 kts 109°
2026-05-05 18:59 34.66852 -107.69172 34854 ft 570 kts 109°
2026-05-05 18:59 34.65511 -107.59712 34850 ft 570 kts 109°
2026-05-05 19:00 34.64178 -107.50233 34847 ft 571 kts 109°
2026-05-05 19:00 34.62850 -107.40781 34843 ft 571 kts 109°
2026-05-05 19:01 34.61502 -107.31253 34832 ft 571 kts 109°
2026-05-05 19:01 34.60155 -107.21793 34835 ft 571 kts 109°
2026-05-05 19:02 34.58789 -107.12253 34824 ft 571 kts 109°
2026-05-05 19:02 34.57422 -107.02761 34797 ft 571 kts 109°
2026-05-05 19:03 34.56053 -106.93309 34807 ft 570 kts 109°
2026-05-05 19:03 34.54671 -106.83824 34980 ft 570 kts 109°
2026-05-05 19:04 34.53282 -106.74381 34959 ft 570 kts 110°
2026-05-05 19:04 34.51855 -106.64897 34908 ft 569 kts 109°
2026-05-05 19:05 34.50449 -106.55508 34878 ft 569 kts 109°
2026-05-05 19:05 34.49039 -106.46048 34835 ft 569 kts 109°
2026-05-05 19:06 34.47633 -106.36653 34829 ft 568 kts 109°
2026-05-05 19:06 34.46209 -106.27202 34840 ft 569 kts 109°
2026-05-05 19:07 34.44786 -106.17802 34851 ft 569 kts 109°
2026-05-05 19:07 34.43345 -106.08342 34851 ft 569 kts 109°
2026-05-05 19:08 34.41903 -105.98924 34806 ft 571 kts 110°
2026-05-05 19:08 34.40453 -105.89502 34849 ft 570 kts 110°
2026-05-05 19:09 34.38989 -105.80035 34854 ft 569 kts 110°
2026-05-05 19:09 34.36988 -105.70912 34850 ft 556 kts 119°
2026-05-05 19:10 34.34376 -105.62200 34818 ft 552 kts 121°
2026-05-05 19:10 34.31684 -105.53455 34830 ft 552 kts 121°
2026-05-05 19:11 34.29088 -105.44758 34817 ft 553 kts 120°
2026-05-05 19:11 34.26502 -105.35976 34795 ft 553 kts 120°
2026-05-05 19:12 34.23943 -105.27287 34821 ft 550 kts 120°
2026-05-05 19:12 34.21344 -105.18532 34784 ft 553 kts 121°
2026-05-05 19:13 34.18752 -105.09826 34780 ft 553 kts 121°
2026-05-05 19:13 34.16137 -105.01061 34751 ft 553 kts 121°
2026-05-05 19:14 34.13529 -104.92349 34743 ft 553 kts 121°
2026-05-05 19:14 34.10890 -104.83574 34739 ft 556 kts 121°
2026-05-05 19:15 34.08233 -104.74834 34736 ft 557 kts 121°
2026-05-05 19:15 34.05580 -104.66120 34742 ft 559 kts 121°
2026-05-05 19:16 34.02901 -104.57284 34722 ft 559 kts 121°
2026-05-05 19:16 34.00238 -104.48511 34707 ft 559 kts 121°
2026-05-05 19:17 33.97563 -104.39731 34706 ft 559 kts 121°
2026-05-05 19:17 33.94868 -104.30915 34698 ft 559 kts 121°
2026-05-05 19:18 33.92187 -104.22172 34699 ft 559 kts 121°
2026-05-05 19:18 33.89468 -104.13340 34679 ft 563 kts 121°
2026-05-05 19:19 33.86748 -104.04530 34700 ft 564 kts 121°
2026-05-05 19:19 33.84005 -103.95652 34700 ft 564 kts 121°
2026-05-05 19:20 33.81266 -103.86831 34735 ft 564 kts 122°
2026-05-05 19:20 33.78476 -103.77968 34746 ft 566 kts 121°
2026-05-05 19:21 33.75704 -103.69134 34752 ft 567 kts 121°
2026-05-05 19:21 33.72919 -103.60235 34760 ft 567 kts 121°
2026-05-05 19:22 33.70149 -103.51402 34755 ft 568 kts 122°
2026-05-05 19:22 33.67348 -103.42509 34765 ft 568 kts 121°
2026-05-05 19:23 33.64554 -103.33658 34769 ft 568 kts 121°
2026-05-05 19:23 33.61739 -103.24770 34768 ft 568 kts 122°
2026-05-05 19:24 33.58938 -103.15951 34769 ft 568 kts 122°
2026-05-05 19:24 33.56112 -103.07082 34763 ft 568 kts 121°
2026-05-05 19:25 33.53296 -102.98269 34765 ft 568 kts 121°
2026-05-05 19:25 33.50444 -102.89424 34771 ft 569 kts 122°
2026-05-05 19:26 33.47573 -102.80568 34771 ft 569 kts 122°
2026-05-05 19:26 33.44726 -102.71754 34798 ft 570 kts 121°
2026-05-05 19:27 33.41876 -102.62931 34832 ft 570 kts 121°
2026-05-05 19:27 33.39004 -102.54064 34851 ft 570 kts 121°
2026-05-05 19:28 33.36141 -102.45255 34859 ft 570 kts 121°
2026-05-05 19:28 33.33258 -102.36413 34810 ft 571 kts 121°
2026-05-05 19:29 33.30367 -102.27581 34828 ft 574 kts 121°
2026-05-05 19:29 33.27446 -102.18667 34779 ft 574 kts 121°
2026-05-05 19:30 33.25015 -102.11264 34777 ft 574 kts 121°
2026-05-05 19:30 33.22111 -102.02454 34772 ft 574 kts 121°
2026-05-05 19:31 33.19143 -101.93559 34776 ft 575 kts 121°
2026-05-05 19:31 33.16195 -101.84717 34768 ft 576 kts 121°
2026-05-05 19:32 33.13233 -101.75810 34755 ft 576 kts 121°
2026-05-05 19:32 33.10287 -101.66966 34735 ft 576 kts 120°
2026-05-05 19:33 33.07332 -101.58124 34744 ft 577 kts 120°
2026-05-05 19:33 33.04343 -101.49205 34746 ft 576 kts 121°
2026-05-05 19:34 33.01374 -101.40371 34740 ft 577 kts 121°
2026-05-05 19:35 32.96876 -101.27034 34728 ft 577 kts 120°
2026-05-05 19:35 32.93891 -101.18216 34754 ft 577 kts 120°
2026-05-05 19:36 32.90875 -101.09336 34786 ft 577 kts 121°
2026-05-05 19:36 32.87853 -101.00539 34806 ft 576 kts 121°
2026-05-05 19:37 32.84814 -100.91681 34819 ft 576 kts 121°
2026-05-05 19:37 32.81802 -100.82885 34818 ft 576 kts 121°
2026-05-05 19:38 32.78770 -100.74041 34801 ft 576 kts 121°
2026-05-05 19:38 32.75746 -100.65252 34775 ft 576 kts 121°
2026-05-05 19:39 32.72697 -100.56415 34737 ft 576 kts 120°
2026-05-05 19:39 32.69674 -100.47676 34780 ft 575 kts 120°
2026-05-05 19:40 32.66636 -100.38918 34799 ft 575 kts 120°
2026-05-05 19:40 32.63579 -100.30130 34724 ft 575 kts 120°
2026-05-05 19:41 32.60512 -100.21338 34722 ft 575 kts 120°
2026-05-05 19:41 32.57446 -100.12623 34743 ft 573 kts 120°
2026-05-05 19:42 32.54381 -100.03949 34762 ft 573 kts 120°
2026-05-05 19:42 32.51297 -99.95194 34784 ft 573 kts 120°
2026-05-05 19:43 32.48251 -99.86486 34790 ft 573 kts 119°
2026-05-05 19:43 32.45462 -99.77666 34791 ft 575 kts 116°
2026-05-05 19:44 32.42789 -99.68728 34814 ft 575 kts 116°
2026-05-05 19:44 32.40118 -99.59839 34812 ft 575 kts 116°
2026-05-05 19:45 32.37405 -99.50930 34797 ft 575 kts 117°
2026-05-05 19:45 32.34675 -99.42023 34779 ft 575 kts 116°
2026-05-05 19:46 32.31964 -99.33202 34742 ft 575 kts 116°
2026-05-05 19:46 32.29225 -99.24307 34745 ft 575 kts 116°
2026-05-05 19:47 32.26489 -99.15445 34736 ft 576 kts 116°
2026-05-05 19:47 32.23735 -99.06555 34739 ft 576 kts 116°
2026-05-05 19:48 32.20982 -98.97690 34745 ft 577 kts 116°
2026-05-05 19:48 32.18191 -98.88788 34750 ft 577 kts 117°
2026-05-05 19:49 32.15387 -98.79884 34769 ft 577 kts 116°
2026-05-05 19:49 32.12612 -98.71044 34785 ft 577 kts 117°
2026-05-05 19:50 32.09813 -98.62130 34797 ft 578 kts 117°
2026-05-05 19:50 32.07019 -98.53258 34802 ft 578 kts 117°
2026-05-05 19:51 32.04216 -98.44378 34792 ft 576 kts 117°
2026-05-05 19:51 32.01432 -98.35591 34787 ft 575 kts 117°
2026-05-05 19:52 31.98621 -98.26747 34787 ft 575 kts 117°
2026-05-05 19:52 31.95823 -98.17969 34782 ft 575 kts 117°
2026-05-05 19:53 31.92994 -98.09138 34778 ft 574 kts 117°
2026-05-05 19:53 31.90169 -98.00353 34780 ft 574 kts 117°
2026-05-05 19:54 31.87356 -97.91585 34785 ft 576 kts 117°
2026-05-05 19:54 31.84518 -97.82733 34764 ft 576 kts 117°
2026-05-05 19:55 31.81696 -97.73950 34766 ft 575 kts 117°
2026-05-05 19:55 31.78850 -97.65120 34769 ft 575 kts 117°
2026-05-05 19:56 31.76023 -97.56381 34767 ft 574 kts 117°
2026-05-05 19:56 31.73175 -97.47602 34775 ft 574 kts 117°
2026-05-05 19:57 31.70332 -97.38860 34776 ft 574 kts 117°
2026-05-05 19:57 31.67470 -97.30079 34776 ft 574 kts 117°
2026-05-05 19:58 31.64978 -97.21168 34784 ft 580 kts 109°
2026-05-05 19:58 31.63235 -97.11852 34803 ft 583 kts 105°
2026-05-05 19:59 31.61648 -97.02545 34804 ft 583 kts 106°
2026-05-05 19:59 31.59972 -96.93234 34798 ft 581 kts 107°
2026-05-05 20:00 31.58251 -96.84019 34799 ft 579 kts 107°
2026-05-05 20:00 31.56505 -96.74763 34806 ft 580 kts 107°
2026-05-05 20:01 31.54780 -96.65622 34812 ft 580 kts 107°
2026-05-05 20:01 31.53030 -96.56364 34810 ft 580 kts 107°
2026-05-05 20:02 31.51272 -96.47180 34818 ft 580 kts 107°
2026-05-05 20:02 31.49484 -96.37946 34820 ft 580 kts 107°
2026-05-05 20:03 31.47709 -96.28752 34823 ft 580 kts 107°
2026-05-05 20:03 31.45926 -96.19525 34823 ft 580 kts 107°
2026-05-05 20:04 31.44148 -96.10354 34821 ft 580 kts 107°
2026-05-05 20:04 31.42361 -96.01181 34823 ft 579 kts 107°
2026-05-05 20:05 31.40555 -95.91952 34823 ft 579 kts 107°
2026-05-05 20:05 31.38753 -95.82778 34802 ft 579 kts 107°
2026-05-05 20:06 31.36950 -95.73628 34824 ft 577 kts 107°
2026-05-05 20:06 31.35129 -95.64463 34830 ft 577 kts 107°
2026-05-05 20:07 31.33302 -95.55354 34830 ft 577 kts 106°
2026-05-05 20:07 31.31482 -95.46231 34833 ft 577 kts 106°
2026-05-05 20:08 31.29655 -95.37064 34833 ft 577 kts 106°
2026-05-05 20:08 31.27836 -95.27966 34833 ft 578 kts 106°
2026-05-05 20:09 31.25992 -95.18786 34829 ft 578 kts 106°
2026-05-05 20:09 31.24158 -95.09692 34835 ft 578 kts 106°
2026-05-05 20:10 31.22300 -95.00517 34853 ft 578 kts 106°
2026-05-05 20:10 31.20447 -94.91403 34855 ft 578 kts 106°
2026-05-05 20:11 31.18438 -94.82342 34859 ft 577 kts 109°
2026-05-05 20:11 31.16143 -94.73338 34858 ft 577 kts 110°
2026-05-05 20:12 31.13829 -94.64424 34837 ft 575 kts 110°
2026-05-05 20:12 31.11529 -94.55456 34843 ft 574 kts 110°
2026-05-05 20:13 31.09260 -94.46566 34844 ft 574 kts 110°
2026-05-05 20:13 31.06969 -94.37610 34851 ft 574 kts 110°
2026-05-05 20:14 31.04686 -94.28720 34854 ft 574 kts 110°
2026-05-05 20:14 31.02390 -94.19814 34854 ft 574 kts 110°
2026-05-05 20:15 31.00076 -94.10870 34865 ft 575 kts 110°
2026-05-05 20:15 30.97768 -94.01972 34865 ft 575 kts 110°
2026-05-05 20:16 30.95464 -93.93139 34865 ft 574 kts 110°
2026-05-05 20:16 30.93108 -93.84213 34881 ft 574 kts 110°
2026-05-05 20:17 30.90772 -93.75345 34878 ft 575 kts 109°
2026-05-05 20:17 30.88830 -93.67950 34876 ft 573 kts 109°
2026-05-05 20:18 30.86106 -93.57601 34891 ft 572 kts 109°
2026-05-05 20:18 30.83775 -93.48779 34900 ft 572 kts 110°
2026-05-05 20:19 30.81820 -93.41405 34905 ft 572 kts 110°
2026-05-05 20:19 30.79458 -93.32518 34904 ft 572 kts 110°
2026-05-05 20:20 30.77108 -93.23708 34904 ft 572 kts 110°
2026-05-05 20:20 30.74737 -93.14841 34898 ft 572 kts 110°
2026-05-05 20:21 30.72378 -93.06046 34900 ft 572 kts 110°
2026-05-05 20:21 30.69983 -92.97202 34902 ft 572 kts 110°
2026-05-05 20:22 30.67584 -92.88394 34915 ft 572 kts 110°
2026-05-05 20:22 30.65196 -92.79599 34918 ft 573 kts 110°
2026-05-05 20:23 30.62802 -92.70777 34911 ft 573 kts 110°
2026-05-05 20:23 30.60399 -92.61949 34913 ft 573 kts 110°
2026-05-05 20:24 30.57997 -92.53152 34921 ft 573 kts 110°
2026-05-05 20:24 30.55588 -92.44359 34922 ft 573 kts 110°
2026-05-05 20:25 30.53166 -92.35543 34919 ft 573 kts 110°
2026-05-05 20:25 30.50731 -92.26707 34925 ft 573 kts 109°
2026-05-05 20:26 30.48306 -92.17934 34923 ft 574 kts 109°
2026-05-05 20:26 30.45856 -92.09107 34918 ft 574 kts 110°
2026-05-05 20:27 30.43395 -92.00345 34922 ft 574 kts 110°
2026-05-05 20:27 30.40934 -91.91569 34929 ft 574 kts 110°
2026-05-05 20:28 30.38462 -91.82735 34916 ft 573 kts 109°
2026-05-05 20:28 30.36009 -91.73982 34934 ft 573 kts 109°
2026-05-05 20:29 30.33551 -91.65240 34943 ft 573 kts 109°
2026-05-05 20:29 30.31068 -91.56436 34944 ft 573 kts 109°
2026-05-05 20:30 30.28599 -91.47708 34938 ft 571 kts 109°
2026-05-05 20:30 30.26127 -91.38996 34947 ft 570 kts 109°
2026-05-05 20:31 30.23654 -91.30303 34948 ft 570 kts 109°
2026-05-05 20:31 30.21182 -91.21641 34953 ft 570 kts 109°
2026-05-05 20:32 30.18671 -91.12922 34963 ft 570 kts 109°
2026-05-05 20:32 30.16168 -91.04273 34962 ft 570 kts 109°
2026-05-05 20:33 30.13663 -90.95587 34961 ft 570 kts 109°
2026-05-05 20:33 30.11142 -90.86847 34957 ft 571 kts 109°
2026-05-05 20:34 30.08647 -90.78218 34957 ft 568 kts 109°
2026-05-05 20:34 30.06129 -90.69542 34963 ft 568 kts 109°
2026-05-05 20:35 30.03621 -90.60923 34959 ft 568 kts 109°
2026-05-05 20:35 30.01108 -90.52311 34963 ft 568 kts 109°
2026-05-05 20:36 29.98576 -90.43656 34969 ft 568 kts 109°
2026-05-05 20:36 29.96037 -90.35002 34973 ft 567 kts 109°
2026-05-05 20:37 29.93517 -90.26446 34973 ft 566 kts 109°
2026-05-05 20:37 29.90963 -90.17875 34970 ft 566 kts 109°
2026-05-05 20:38 29.88403 -90.09263 34978 ft 566 kts 109°
2026-05-05 20:38 29.85519 -90.00876 34980 ft 563 kts 120°
2026-05-05 20:39 29.80983 -89.93592 34974 ft 556 kts 135°
2026-05-05 20:39 29.75739 -89.87138 34986 ft 554 kts 136°
2026-05-05 20:40 29.70566 -89.80515 34991 ft 555 kts 134°
2026-05-05 20:40 29.65566 -89.73767 34992 ft 556 kts 133°
2026-05-05 20:41 29.60584 -89.66964 34985 ft 556 kts 133°
2026-05-05 20:41 29.55610 -89.60198 34988 ft 556 kts 134°
2026-05-05 20:42 29.50603 -89.53418 34990 ft 555 kts 133°
2026-05-05 20:42 29.45606 -89.46668 34993 ft 555 kts 133°
2026-05-05 20:43 29.40620 -89.39942 34993 ft 556 kts 134°
2026-05-05 20:43 29.35596 -89.33176 34994 ft 556 kts 134°
2026-05-05 20:44 29.30603 -89.26462 34992 ft 556 kts 134°
2026-05-05 20:44 29.25571 -89.19708 34990 ft 554 kts 133°
2026-05-05 20:45 29.18075 -89.09666 34988 ft 553 kts 133°
2026-05-05 20:45 29.13075 -89.02999 34990 ft 553 kts 134°
2026-05-05 20:46 29.08074 -88.96354 34989 ft 553 kts 133°
2026-05-05 20:46 29.03080 -88.89710 34990 ft 553 kts 133°
2026-05-05 20:47 28.98067 -88.83040 34995 ft 553 kts 133°
2026-05-05 20:47 28.93056 -88.76384 34986 ft 552 kts 133°
2026-05-05 20:48 28.88032 -88.69712 34996 ft 552 kts 133°
2026-05-05 20:48 28.83084 -88.63070 34994 ft 552 kts 133°
2026-05-05 20:49 28.78118 -88.56367 34995 ft 552 kts 133°
2026-05-05 20:49 28.73177 -88.49705 34995 ft 552 kts 133°
2026-05-05 20:50 28.68221 -88.43039 35000 ft 552 kts 133°
2026-05-05 20:50 28.63241 -88.36355 34998 ft 551 kts 133°
2026-05-05 20:51 28.58292 -88.29723 35001 ft 550 kts 133°
2026-05-05 20:51 28.53328 -88.23081 35001 ft 550 kts 133°
2026-05-05 20:52 28.48382 -88.16474 35001 ft 550 kts 133°
2026-05-05 20:52 28.43412 -88.09845 35001 ft 550 kts 133°
2026-05-05 20:53 28.38524 -88.03164 34995 ft 553 kts 127°
2026-05-05 20:53 28.34960 -87.95419 34992 ft 554 kts 108°
2026-05-05 20:54 28.32922 -87.87041 35003 ft 551 kts 102°
2026-05-05 20:54 28.30934 -87.78680 35006 ft 551 kts 105°
2026-05-05 20:55 28.28636 -87.70337 35015 ft 552 kts 107°
2026-05-05 20:55 28.26241 -87.62120 35009 ft 551 kts 108°
2026-05-05 20:56 28.23824 -87.53853 35009 ft 551 kts 108°
2026-05-05 20:56 28.21431 -87.45625 35009 ft 551 kts 107°
2026-05-05 20:57 28.19031 -87.37373 35012 ft 551 kts 108°
2026-05-05 20:57 28.16638 -87.29164 35013 ft 551 kts 107°
2026-05-05 20:58 28.14221 -87.20893 35015 ft 551 kts 107°
2026-05-05 20:58 28.11810 -87.12670 35016 ft 551 kts 108°
2026-05-05 20:59 28.09367 -87.04425 35018 ft 551 kts 108°
2026-05-05 20:59 28.06937 -86.96229 35017 ft 551 kts 108°
2026-05-05 21:00 28.04504 -86.88001 35018 ft 552 kts 107°
2026-05-05 21:00 28.02065 -86.79758 35012 ft 550 kts 107°
2026-05-05 21:01 27.99674 -86.71602 35015 ft 547 kts 107°
2026-05-05 21:01 27.97309 -86.63383 35018 ft 547 kts 107°
2026-05-05 21:02 27.94964 -86.55217 35023 ft 548 kts 107°
2026-05-05 21:02 27.92596 -86.46999 35018 ft 548 kts 107°
2026-05-05 21:03 27.90233 -86.38834 35018 ft 548 kts 107°
2026-05-05 21:03 27.87852 -86.30623 35018 ft 548 kts 107°
2026-05-05 21:04 27.85481 -86.22471 35017 ft 548 kts 107°
2026-05-05 21:04 27.83082 -86.14242 35022 ft 549 kts 107°
2026-05-05 21:05 27.80694 -86.06071 35023 ft 550 kts 107°
2026-05-05 21:05 27.78297 -85.97888 35020 ft 550 kts 107°
2026-05-05 21:06 27.75896 -85.89711 35018 ft 550 kts 107°
2026-05-05 21:06 27.73872 -85.82884 35026 ft 550 kts 107°
2026-05-05 21:07 27.71434 -85.74684 35026 ft 550 kts 107°
2026-05-05 21:07 27.69004 -85.66484 35029 ft 550 kts 107°
2026-05-05 21:08 27.66588 -85.58334 35029 ft 550 kts 107°
2026-05-05 21:08 27.64154 -85.50139 35029 ft 550 kts 107°
2026-05-05 21:09 27.61720 -85.41967 35032 ft 550 kts 107°
2026-05-05 21:09 27.59301 -85.33801 35028 ft 551 kts 105°
2026-05-05 21:10 27.57489 -85.25425 35031 ft 549 kts 98°
2026-05-05 21:10 27.56097 -85.16931 35031 ft 549 kts 97°
2026-05-05 21:11 27.54711 -85.08513 35031 ft 549 kts 98°
2026-05-05 21:11 27.53254 -85.00088 35031 ft 550 kts 98°
2026-05-05 21:12 27.51762 -84.91622 35027 ft 550 kts 98°
2026-05-05 21:12 27.50270 -84.83191 35026 ft 550 kts 98°
2026-05-05 21:13 27.48765 -84.74717 35031 ft 550 kts 98°
2026-05-05 21:13 27.47263 -84.66307 35041 ft 549 kts 98°
2026-05-05 21:14 27.45754 -84.57854 35032 ft 550 kts 98°
2026-05-05 21:14 27.44249 -84.49442 35030 ft 550 kts 98°
2026-05-05 21:15 27.42732 -84.40990 35033 ft 549 kts 98°
2026-05-05 21:15 27.41216 -84.32622 35029 ft 549 kts 98°
2026-05-05 21:16 27.39684 -84.24193 35034 ft 549 kts 98°
2026-05-05 21:16 27.38154 -84.15774 35035 ft 550 kts 98°
2026-05-05 21:17 27.36627 -84.07390 35034 ft 549 kts 98°
2026-05-05 21:17 27.35085 -83.98958 35034 ft 549 kts 98°
2026-05-05 21:18 27.33549 -83.90585 35033 ft 548 kts 98°
2026-05-05 21:18 27.32001 -83.82184 35035 ft 547 kts 98°
2026-05-05 21:19 27.30450 -83.73790 35034 ft 547 kts 98°
2026-05-05 21:19 27.28903 -83.65444 35035 ft 547 kts 98°
2026-05-05 21:20 27.27353 -83.57115 35034 ft 547 kts 98°
2026-05-05 21:20 27.25792 -83.48765 35031 ft 542 kts 98°
2026-05-05 21:21 27.25010 -83.44644 35032 ft 531 kts 98°
2026-05-05 21:21 27.24233 -83.40568 35033 ft 534 kts 98°
2026-05-05 21:21 27.22686 -83.32392 35032 ft 543 kts 98°
2026-05-05 21:22 27.21109 -83.24039 35029 ft 546 kts 98°
2026-05-05 21:22 27.19524 -83.15672 35032 ft 546 kts 98°
2026-05-05 21:23 27.17944 -83.07365 35027 ft 546 kts 98°
2026-05-05 21:23 27.16351 -82.99016 35027 ft 546 kts 98°
2026-05-05 21:24 27.14765 -82.90698 35027 ft 546 kts 98°
2026-05-05 21:24 27.12706 -82.82452 35029 ft 550 kts 111°
2026-05-05 21:25 27.08962 -82.74991 35037 ft 553 kts 123°
2026-05-05 21:25 27.04693 -82.67796 35026 ft 553 kts 123°
2026-05-05 21:26 27.00560 -82.60530 35022 ft 553 kts 121°
2026-05-05 21:26 26.96529 -82.53157 35015 ft 553 kts 120°
2026-05-05 21:27 26.92467 -82.45837 35024 ft 552 kts 126°
2026-05-05 21:27 26.87246 -82.39596 35031 ft 551 kts 141°
2026-05-05 21:28 26.81331 -82.34211 35019 ft 550 kts 143°
2026-05-05 21:28 26.75384 -82.28784 35015 ft 550 kts 142°
2026-05-05 21:29 26.69543 -82.23227 35009 ft 551 kts 141°
2026-05-05 21:29 26.63762 -82.17649 34992 ft 549 kts 140°
2026-05-05 21:30 26.60872 -82.14863 34776 ft 544 kts 140°
2026-05-05 21:30 26.58037 -82.12135 34514 ft 541 kts 141°
2026-05-05 21:30 26.55169 -82.09381 34254 ft 540 kts 141°
2026-05-05 21:30 26.52388 -82.06682 34003 ft 541 kts 140°
2026-05-05 21:31 26.49579 -82.03887 33717 ft 541 kts 139°
2026-05-05 21:31 26.46781 -82.01060 33426 ft 540 kts 139°
2026-05-05 21:31 26.44005 -81.98238 33140 ft 540 kts 139°
2026-05-05 21:31 26.41225 -81.95409 32855 ft 540 kts 139°
2026-05-05 21:32 26.38440 -81.92579 32574 ft 540 kts 139°
2026-05-05 21:32 26.35690 -81.89793 32307 ft 540 kts 139°
2026-05-05 21:32 26.32909 -81.86980 32032 ft 540 kts 139°
2026-05-05 21:32 26.30121 -81.84165 31741 ft 538 kts 139°
2026-05-05 21:33 26.27375 -81.81394 31469 ft 524 kts 139°
2026-05-05 21:33 26.24721 -81.78673 31198 ft 513 kts 135°
2026-05-05 21:33 26.22457 -81.75608 30927 ft 509 kts 123°
2026-05-05 21:33 26.20708 -81.72198 30667 ft 506 kts 115°
2026-05-05 21:34 26.19859 -81.70217 30527 ft 504 kts 113°
2026-05-05 21:34 26.19332 -81.68913 30426 ft 503 kts 112°
2026-05-05 21:34 26.17939 -81.65341 30180 ft 501 kts 112°
2026-05-05 21:34 26.16547 -81.61789 29892 ft 499 kts 113°
2026-05-05 21:35 26.15122 -81.58271 29592 ft 497 kts 114°
2026-05-05 21:35 26.13665 -81.54790 29289 ft 495 kts 114°
2026-05-05 21:35 26.12179 -81.51321 28998 ft 493 kts 115°
2026-05-05 21:35 26.10715 -81.47941 28710 ft 490 kts 115°
2026-05-05 21:36 26.09224 -81.44519 28421 ft 488 kts 115°
2026-05-05 21:36 26.07754 -81.41150 28138 ft 486 kts 115°
2026-05-05 21:36 26.06281 -81.37778 27866 ft 484 kts 115°
2026-05-05 21:36 26.04812 -81.34417 27569 ft 481 kts 115°
2026-05-05 21:37 26.03348 -81.31065 27291 ft 479 kts 115°
2026-05-05 21:37 26.01894 -81.27733 27022 ft 477 kts 115°
2026-05-05 21:37 26.00445 -81.24413 26752 ft 475 kts 115°
2026-05-05 21:37 25.99002 -81.21107 26463 ft 474 kts 115°
2026-05-05 21:38 25.97568 -81.17823 26194 ft 471 kts 115°
2026-05-05 21:38 25.96159 -81.14597 25933 ft 468 kts 115°
2026-05-05 21:38 25.94748 -81.11338 25670 ft 465 kts 112°
2026-05-05 21:38 25.93767 -81.07938 25157 ft 458 kts 98°
2026-05-05 21:39 25.93577 -81.04448 24563 ft 445 kts 80°
2026-05-05 21:39 25.94229 -81.01248 24444 ft 416 kts 63°
2026-05-05 21:39 25.95587 -80.98544 24333 ft 386 kts 45°
2026-05-05 21:39 25.97474 -80.96571 23972 ft 364 kts 26°
2026-05-05 21:40 25.99723 -80.95464 23458 ft 346 kts
2026-05-05 21:40 26.02059 -80.95340 22839 ft 329 kts 345°
2026-05-05 21:40 26.04164 -80.96126 21890 ft 315 kts 325°
2026-05-05 21:40 26.05750 -80.97723 20955 ft 306 kts 303°
2026-05-05 21:41 26.06583 -80.99875 20050 ft 304 kts 281°
2026-05-05 21:41 26.06533 -81.02190 19194 ft 308 kts 259°
2026-05-05 21:41 26.05594 -81.04355 18360 ft 315 kts 236°
2026-05-05 21:41 26.03905 -81.05946 17447 ft 324 kts 212°
2026-05-05 21:42 26.01758 -81.06679 16619 ft 331 kts 189°
2026-05-05 21:42 25.99460 -81.06430 15815 ft 336 kts 166°
2026-05-05 21:42 25.97349 -81.05292 15010 ft 337 kts 146°
2026-05-05 21:42 25.95599 -81.03568 14270 ft 335 kts 136°
2026-05-05 21:43 25.94031 -81.01716 13515 ft 331 kts 130°
2026-05-05 21:43 25.92939 -80.99491 12979 ft 328 kts 105°
2026-05-05 21:43 25.92717 -80.96998 12552 ft 322 kts 81°
2026-05-05 21:43 25.93386 -80.94662 12089 ft 314 kts 56°
2026-05-05 21:44 25.94803 -80.92885 11636 ft 304 kts 31°
2026-05-05 21:44 25.96668 -80.91963 11191 ft 293 kts
2026-05-05 21:44 25.98660 -80.92016 10757 ft 283 kts 341°
2026-05-05 21:44 26.00364 -80.93014 10309 ft 275 kts 315°
2026-05-05 21:45 26.01445 -80.94730 9862 ft 271 kts 289°
2026-05-05 21:45 26.01673 -80.96779 9425 ft 267 kts 262°
2026-05-05 21:45 26.01005 -80.98659 9189 ft 272 kts 235°
2026-05-05 21:45 25.99618 -81.00087 8960 ft 276 kts 217°
2026-05-05 21:46 25.97853 -81.00961 8718 ft 282 kts 193°
2026-05-05 21:46 25.95893 -81.00893 8477 ft 286 kts 166°
2026-05-05 21:46 25.94154 -80.99880 8228 ft 288 kts 141°
2026-05-05 21:46 25.92713 -80.98323 8033 ft 289 kts 134°
2026-05-05 21:47 25.91344 -80.96683 7993 ft 288 kts 134°
2026-05-05 21:47 25.89986 -80.95038 7984 ft 288 kts 133°
2026-05-05 21:47 25.88703 -80.93328 7983 ft 288 kts 128°
2026-05-05 21:47 25.87548 -80.91499 7987 ft 289 kts 123°
2026-05-05 21:48 25.86519 -80.89605 7983 ft 289 kts 120°
2026-05-05 21:48 25.85564 -80.87639 7980 ft 288 kts 118°
2026-05-05 21:48 25.84669 -80.85643 7978 ft 288 kts 116°
2026-05-05 21:48 25.83811 -80.83626 7943 ft 289 kts 115°
2026-05-05 21:49 25.82986 -80.81619 7796 ft 288 kts 115°
2026-05-05 21:49 25.82170 -80.79587 7661 ft 287 kts 114°
2026-05-05 21:49 25.81368 -80.77555 7474 ft 286 kts 114°
2026-05-05 21:49 25.80584 -80.75548 7117 ft 285 kts 114°
2026-05-05 21:50 25.79802 -80.73531 6732 ft 282 kts 114°
2026-05-05 21:50 25.79028 -80.71526 6307 ft 281 kts 113°
2026-05-05 21:50 25.78256 -80.69525 5870 ft 281 kts 113°
2026-05-05 21:50 25.77520 -80.67542 5441 ft 279 kts 107°
2026-05-05 21:51 25.77242 -80.65428 5063 ft 275 kts 91°
2026-05-05 21:51 25.77265 -80.63311 4706 ft 273 kts 87°
2026-05-05 21:51 25.77353 -80.61210 4333 ft 270 kts 86°
2026-05-05 21:51 25.77449 -80.59198 4062 ft 255 kts 86°
2026-05-05 21:52 25.77613 -80.55649 3913 ft 210 kts 86°
2026-05-05 21:52 25.77685 -80.54042 3527 ft 204 kts 86°
2026-05-05 21:52 25.77754 -80.52485 3181 ft 204 kts 86°
2026-05-05 21:53 25.77823 -80.50915 3014 ft 202 kts 85°
2026-05-05 21:53 25.77889 -80.49395 2970 ft 190 kts 85°
2026-05-05 21:53 25.77946 -80.48021 2883 ft 170 kts 85°
2026-05-05 21:53 25.78000 -80.46740 2662 ft 162 kts 86°
2026-05-05 21:54 25.78052 -80.45497 2489 ft 160 kts 85°
2026-05-05 21:54 25.78102 -80.44281 2286 ft 157 kts 85°
2026-05-05 21:54 25.78152 -80.43085 2086 ft 153 kts 86°
2026-05-05 21:54 25.78199 -80.41912 1853 ft 149 kts 85°
2026-05-05 21:55 25.78247 -80.40758 1683 ft 150 kts 86°
2026-05-05 21:55 25.78294 -80.39607 1522 ft 148 kts 86°
2026-05-05 21:55 25.78340 -80.38477 1286 ft 149 kts 87°
2026-05-05 21:55 25.78385 -80.37330 1117 ft 148 kts 88°
2026-05-05 21:56 25.78430 -80.36185 898 ft 149 kts 85°
2026-05-05 21:56 25.78478 -80.35027 752 ft 151 kts 88°
2026-05-05 21:56 25.78523 -80.33883 570 ft 148 kts 87°
2026-05-05 21:56 25.78569 -80.32707 368 ft 160 kts 85°
2026-05-05 21:57 25.78600 -80.31924 173 ft 140 kts 85°
2026-05-05 21:57 25.78644 -80.30863 35 ft 136 kts 85°
2026-05-05 21:57 25.78676 -80.29999 23 ft 78 kts 86°
2026-05-05 21:57 25.78689 -80.29716 29 ft 22 kts 87°
2026-05-05 21:58 25.78696 -80.29551 28 ft 21 kts 87°
2026-05-05 21:58 25.78702 -80.29405 24 ft 17 kts 87°
2026-05-05 21:58 25.78715 -80.29295 29 ft 11 kts 66°
2026-05-05 21:58 25.78752 -80.29227 29 ft 10 kts 56°
2026-05-05 21:59 25.78793 -80.29176 27 ft 8 kts 39°
2026-05-05 21:59 25.78813 -80.29157 28 ft 1 kts 50°
2026-05-05 21:59 25.78816 -80.29145 25 ft 0 kts 71°
2026-05-05 22:00 25.78816 -80.29144 23 ft 0 kts 71°
2026-05-05 22:00 25.78818 -80.29135 26 ft 4 kts 76°
2026-05-05 22:00 25.78823 -80.29092 27 ft 9 kts 86°
2026-05-05 22:01 25.78834 -80.28998 27 ft 14 kts 78°
2026-05-05 22:01 25.78859 -80.28901 27 ft 0 kts 64°
2026-05-05 22:01 25.78868 -80.28894 27 ft 5 kts 38°
2026-05-05 22:01 25.78948 -80.28874 22 ft 17 kts
2026-05-05 22:02 25.79063 -80.28878 20 ft 16 kts 358°
2026-05-05 22:02 25.79179 -80.28882 20 ft 17 kts 359°
2026-05-05 22:02 25.79285 -80.28884 21 ft 12 kts
2026-05-05 22:02 25.79328 -80.28858 22 ft 8 kts 43°
2026-05-05 22:03 25.79391 -80.28810 23 ft 13 kts 17°
2026-05-05 22:03 25.79501 -80.28802 29 ft 17 kts 358°
2026-05-05 22:03 25.79613 -80.28807 28 ft 16 kts 358°
2026-05-05 22:03 25.79730 -80.28813 28 ft 17 kts 358°
2026-05-05 22:04 25.79842 -80.28818 28 ft 15 kts 358°
2026-05-05 22:04 25.79922 -80.28783 29 ft 13 kts 42°
2026-05-05 22:04 25.79991 -80.28727 30 ft 12 kts 39°
2026-05-05 22:04 25.80023 -80.28646 28 ft 12 kts 83°
2026-05-05 22:05 25.80040 -80.28554 29 ft 8 kts 54°
2026-05-05 22:05 25.80100 -80.28537 28 ft 16 kts
2026-05-05 22:05 25.80196 -80.28537 26 ft 7 kts
2026-05-05 22:05 25.80234 -80.28513 26 ft 6 kts 59°
2026-05-05 22:06 25.80253 -80.28412 29 ft 14 kts 87°
2026-05-05 22:06 25.80256 -80.28338 23 ft 12 kts 87°
2026-05-05 22:06 25.80320 -80.28282 25 ft 16 kts
2026-05-05 22:06 25.80425 -80.28255 27 ft 13 kts 24°
2026-05-05 22:07 25.80482 -80.28164 27 ft 20 kts 83°
2026-05-05 22:07 25.80489 -80.28014 29 ft 19 kts 87°
2026-05-05 22:07 25.80495 -80.27876 27 ft 16 kts 88°
2026-05-05 22:07 25.80499 -80.27752 28 ft 19 kts 88°
2026-05-05 22:08 25.80507 -80.27576 27 ft 17 kts 85°
2026-05-05 22:08 25.80506 -80.27441 23 ft 13 kts 86°
2026-05-05 22:08 25.80511 -80.27353 27 ft 12 kts 90°
2026-05-05 22:08 25.80513 -80.27272 27 ft 10 kts 88°
2026-05-05 22:09 25.80515 -80.27203 27 ft 9 kts 88°
2026-05-05 22:09 25.80518 -80.27139 24 ft 8 kts 88°
2026-05-05 22:09 25.80520 -80.27068 22 ft 11 kts 88°
2026-05-05 22:09 25.80523 -80.27002 22 ft 4 kts 86°
2026-05-05 22:10 25.80528 -80.26927 23 ft 8 kts 83°
2026-05-05 22:10 25.80529 -80.26924 23 ft 0 kts 82°
2026-05-05 22:10 25.80529 -80.26922 23 ft 2 kts 81°
2026-05-05 22:10 25.80539 -80.26899 26 ft 3 kts 54°
2026-05-05 22:11 25.80556 -80.26889 27 ft 1 kts 17°
2026-05-05 22:11 25.80570 -80.26886 25 ft 2 kts 11°
2026-05-05 22:11 25.80586 -80.26884 26 ft 2 kts
2026-05-05 22:11 25.80597 -80.26883 25 ft 0 kts
2026-05-05 22:12 25.80607 -80.26883 27 ft 0 kts 359°
2026-05-05 22:12 25.80610 -80.26884 27 ft 1 kts 357°
2026-05-05 22:12 25.80611 -80.26884 27 ft 0 kts 356°